Location: Newark
(7.1028°S, 35.3258°W)
Time: 17:20:11
(UTC+00:00)

Transit 2A - All Passes

Search period start: 26 February 2020 00:00
Search period end: 07 March 2020 00:00
Orbit: 599 x 959 km, 66.7° (Epoch: 25 February)

Date Brightness Start Highest point End Pass type
(mag) Time Alt. Az. Time Alt. Az. Time Alt. Az.
26 Feb - 00:33:48 10° N 00:39:10 34° ENE 00:44:48 10° SE night (unlit)
26 Feb - 02:17:37 10° WNW 02:22:15 22° WSW 02:27:02 10° SSW night (unlit)
26 Feb - 13:06:08 10° SW 13:10:42 45° WNW 13:14:55 10° N daylight
27 Feb - 00:00:40 10° NNE 00:05:08 22° ENE 00:09:47 10° ESE night (unlit)
27 Feb - 01:42:35 10° NW 01:48:04 35° WSW 01:53:46 10° S night (unlit)
27 Feb - 12:31:50 10° SSW 12:36:38 85° WNW 12:41:04 10° NNE daylight
27 Feb - 23:28:28 10° NE 23:31:07 13° ENE 23:33:49 10° E night (unlit)
28 Feb - 01:08:00 10° NW 01:13:54 55° WSW 01:20:07 10° S night (unlit)
28 Feb - 11:57:52 10° S 12:02:33 51° ESE 12:06:51 10° NE daylight
29 Feb - 00:33:44 10° NNW 00:39:47 86° WSW 00:46:11 10° SSE night (unlit)
29 Feb - 11:24:15 10° S 11:28:23 29° ESE 11:32:15 10° NE daylight
29 Feb - 13:09:17 10° W 13:11:07 12° WNW 13:12:54 10° NW daylight
29 Feb - 23:59:46 10° N 00:05:42 61° ENE 00:11:58 10° SSE night (unlit)
01 Mar - 01:46:33 10° W 01:49:01 12° WSW 01:51:31 10° SW night (unlit)
01 Mar - 10:51:11 10° SSE 10:54:12 16° ESE 10:57:03 10° ENE daylight
01 Mar - 12:33:30 10° WSW 12:37:07 22° WNW 12:40:32 10° NNW daylight
01 Mar - 23:26:07 10° N 23:31:39 38° ENE 23:37:27 10° SE night (unlit)
02 Mar - 01:10:22 10° WNW 01:14:47 20° WSW 01:19:19 10° SSW night (unlit)
02 Mar - 11:58:42 10° SW 12:03:06 40° WNW 12:07:13 10° N daylight
02 Mar - 22:52:52 10° NNE 22:57:38 24° ENE 23:02:33 10° SE night (unlit)
03 Mar - 00:35:13 10° NW 00:40:35 32° WSW 00:46:09 10° S night (unlit)
03 Mar - 11:24:20 10° SSW 11:29:04 75° WNW 11:33:26 10° NNE daylight
03 Mar - 22:20:21 10° NE 22:23:36 15° ENE 22:26:54 10° ESE night (unlit)
04 Mar - 00:00:32 10° NW 00:06:25 50° WSW 00:12:34 10° S night (unlit)
04 Mar - 10:50:17 10° S 10:54:58 58° ESE 10:59:18 10° NNE daylight
04 Mar - 23:26:12 10° NNW 23:32:18 79° WSW 23:38:41 10° SSE night (unlit)
05 Mar - 10:16:36 10° S 10:20:50 32° ESE 10:24:47 10° NE daylight
05 Mar - 12:02:42 10° W 12:03:31 10° WNW 12:04:21 10° WNW daylight
05 Mar - 22:52:10 10° N 22:58:12 67° ENE 23:04:32 10° SSE visible
06 Mar - 00:39:51 10° W 00:41:33 11° WSW 00:43:16 10° SW night (unlit)
06 Mar - 09:43:24 10° SSE 09:46:38 18° ESE 09:49:44 10° ENE daylight
06 Mar - 11:26:13 10° WSW 11:29:31 19° WNW 11:32:41 10° NNW daylight
06 Mar - 22:18:27 10° N 22:24:09 42° ENE 22:30:05 10° SE visible
